Wetbulb
44.95 45.04 45.06 45.01 44.74 44.69 45.03 44.96 44.84 44.31 44.14 44.38 44.36 44.57 45.38 45.71 43.84 38.79 35.80 37.69 35.43 30.39 31.60 34.54 34.91 29.65 28.98 28.38 25.11 27.93 27.08 26.16 23.17 19.07 17.72 21.28 20.33 21.99 19.48 22.79 15.53 19.14 16.85 11.73 15.30 5.93 7.60 30.73 30.19 22.77 28.51 32.96 33.12 32.93
44.74 44.66 44.72 44.49 44.44 44.32 44.57 44.77 44.42 44.27 44.07 44.46 44.62 44.91 45.96 45.87 44.06 40.19 34.13 37.85 38.08 32.75 32.09 35.29 36.40 36.17 34.74 33.87 29.50 28.32 27.03 26.23 24.40 19.62 17.17 18.71 21.05 19.38 20.31 15.91 24.57 13.95 18.51 17.11 20.27 19.70 29.23 33.30 30.70 33.91 34.27 32.28 32.79 32.58
44.40 44.54 44.45 44.49 44.25 44.35 44.47 44.40 44.14 44.14 44.09 44.53 44.91 45.40 45.96 45.33 44.01 40.45 35.31 35.41 34.04 29.55 30.43 30.05 29.61 35.64 38.16 36.21 35.96 28.74 29.24 32.71 28.91 28.90 21.73 21.59 20.44 22.33 13.17 18.82 20.49 24.42 32.21 26.65 21.95 27.16 30.53 30.20 34.50 33.11 33.23 33.52 33.52 32.35
44.43 44.28 44.38 44.20 44.09 44.00 44.07 44.15 43.88 43.95 44.24 44.45 44.92 45.08 45.31 45.35 44.52 41.90 36.04 36.17 34.33 30.57 25.23 29.93 38.41 34.82 37.80 37.43 35.90 34.92 33.15 32.84 30.98 28.60 22.78 20.35 21.76 26.49 22.77 23.11 21.10 21.89 31.12 26.42 21.84 29.59 30.94 33.43 31.67 33.08 32.89 32.58 31.06 30.94
44.21 44.07 44.03 43.83 43.91 43.95 43.86 43.73 43.79 44.01 44.38 44.16 44.84 44.94 45.19 44.50 43.42 40.26 37.60 36.88 36.37 31.70 25.48 28.20 33.38 36.61 37.80 36.76 35.13 34.81 33.13 29.76 27.32 24.04 19.20 20.40 25.88 24.98 25.24 25.80 19.21 29.10 27.19 20.53 18.14 28.55 27.72 31.32 32.19 33.52 31.08 28.85 28.98 28.13
44.15 44.05 43.79 43.81 43.72 43.80 43.77 43.58 43.85 44.08 44.12 44.37 44.54 44.58 44.13 42.99 40.67 35.52 30.14 36.84 37.98 34.26 28.40 23.59 31.78 33.29 35.02 35.55 34.31 33.05 32.11 29.28 27.45 25.70 23.55 27.01 29.23 25.63 18.71 20.56 28.78 30.29 31.68 30.87 27.75 32.58 32.60 31.85 30.66 30.02 28.85 27.54 26.89 26.01
44.07 43.96 43.60 43.37 43.57 43.68 43.68 43.64 43.86 44.09 44.13 44.15 44.50 44.06 43.36 42.01 37.54 32.67 29.98 35.25 39.21 35.57 26.47 22.59 25.84 31.41 35.10 33.39 31.09 30.28 30.88 29.07 28.32 25.30 23.42 26.21 26.69 27.80 21.14 22.02 28.51 31.65 32.52 32.03 31.41 33.37 26.73 26.81 24.83 27.21 26.75 26.28 26.22 24.94
43.78 43.71 43.41 43.30 43.44 43.59 43.50 43.50 43.97 44.07 44.25 44.43 44.39 43.86 43.38 43.01 40.58 34.66 37.45 41.87 38.67 32.71 29.24 18.94 23.08 27.74 32.98 28.37 27.70 30.44 28.03 28.55 28.10 26.95 26.54 25.93 27.16 25.21 20.96 27.67 28.96 30.03 29.38 27.98 27.61 28.06 26.16 26.07 25.72 24.48 24.35 23.30 22.34 21.32
43.55 43.47 43.13 43.17 43.29 43.31 43.51 43.73 43.81 43.90 44.29 44.17 43.31 40.86 37.00 34.92 31.70 34.14 42.64 39.55 37.06 32.46 22.14 18.85 21.36 19.60 32.70 31.50 32.79 31.45 28.37 21.93 28.40 21.12 23.96 25.60 24.14 24.01 27.34 27.46 27.65 27.87 28.55 26.34 26.93 25.95 25.06 23.68 22.63 21.80 21.40 20.57 19.45 19.02
43.33 43.24 43.18 42.99 43.27 43.24 43.65 43.72 43.48 43.76 43.89 41.76 36.46 29.78 23.86 32.02 41.44 38.70 33.38 27.06 26.92 27.33 27.18 23.16 26.32 23.04 29.56 29.24 30.12 27.36 27.47 27.70 25.03 26.08 28.00 22.63 23.80 27.03 29.22 28.65 26.79 27.04 28.66 27.89 24.27 22.75 22.77 21.70 20.82 20.76 19.36 19.63 18.82 18.17
43.35 43.45 43.34 43.27 43.39 43.18 43.08 43.20 43.33 43.46 39.69 32.59 28.88 30.78 35.16 41.20 33.28 27.70 20.77 21.30 21.94 19.90 25.26 26.46 26.53 25.25 29.89 25.27 26.22 25.60 20.83 25.97 19.93 24.79 24.48 24.63 25.10 26.02 26.64 25.71 26.20 25.32 24.44 22.97 22.91 22.16 21.33 21.22 19.70 19.51 18.70 18.92 18.20 17.54
42.86 43.32 43.54 43.37 43.48 43.36 43.13 42.96 42.50 36.05 33.61 34.13 36.33 37.41 35.65 30.53 24.37 19.70 14.91 22.97 24.66 23.41 25.56 23.33 25.41 26.69 26.73 29.22 24.95 25.47 21.71 23.54 21.88 30.45 27.04 21.57 26.45 25.23 24.77 24.78 24.09 23.53 22.83 22.08 22.24 20.85 20.87 21.00 20.07 19.82 18.58 18.23 17.57 16.71
41.87 43.43 43.58 43.53 42.73 42.99 43.02 42.15 41.03 40.56 40.22 36.04 31.83 26.02 24.86 24.24 14.40 13.42 14.66 19.64 18.91 25.80 23.97 24.87 21.13 25.60 26.43 27.44 24.17 17.09 14.94 17.64 27.26 25.55 23.12 22.43 27.92 25.69 23.38 22.96 22.38 22.94 22.48 21.85 20.70 20.60 20.25 19.53 19.71 19.20 18.14 18.18 15.11 13.49
41.79 43.37 43.24 43.38 43.03 42.56 42.03 42.38 42.57 39.76 33.51 25.51 20.26 17.74 16.51 17.04 19.68 22.46 23.54 24.77 26.09 25.56 25.50 27.13 23.84 24.66 23.38 22.20 18.80 13.06 19.39 23.53 18.06 14.25 19.85 18.96 24.80 23.69 23.32 23.37 22.42 21.29 20.99 18.54 20.57 20.34 18.93 18.08 16.78 13.88 8.56 7.39 6.49 9.97
41.37 42.01 42.34 42.66 42.53 42.11 42.28 42.28 40.61 36.80 29.77 23.06 22.53 12.46 18.50 21.77 25.73 28.25 28.12 28.08 30.75 26.36 27.82 26.62 24.59 23.36 17.78 16.54 21.05 20.07 16.36 20.89 22.07 15.58 19.66 19.95 23.64 23.56 23.28 23.38 22.39 21.84 16.06 15.25 13.41 11.29 10.14 9.08 9.28 9.07 7.51 6.28 9.85 7.15
40.77 39.45 38.34 42.59 42.16 41.78 41.39 39.71 37.21 33.80 28.26 25.03 23.37 21.65 21.36 22.48 27.02 28.69 30.41 29.86 31.21 30.47 28.88 29.01 20.53 14.40 14.88 18.16 19.11 14.81 19.16 14.08 14.46 17.54 21.49 25.21 24.40 24.37 23.95 23.65 22.12 19.98 15.07 11.77 9.53 9.34 8.27 5.91 6.54 7.73 3.42 4.78 3.09 2.00
37.70 34.16 41.10 42.52 41.66 41.28 40.15 36.14 34.17 28.49 23.64 21.49 24.74 24.94 20.78 22.81 27.08 25.21 29.78 28.57 29.37 28.48 25.80 23.88 15.47 17.30 22.55 17.97 20.02 22.40 17.17 15.37 18.04 22.62 25.18 26.21 24.81 22.90 21.33 20.29 17.81 18.91 18.31 14.69 10.46 9.87 7.90 6.40 6.03 9.55 8.22 5.28 5.60 4.82
33.20 37.64 39.68 42.21 40.34 37.71 34.15 34.35 28.61 25.38 22.22 25.10 18.68 17.90 22.66 21.21 28.14 26.19 25.91 28.69 29.48 30.25 30.28 27.51 30.88 24.97 14.58 16.42 17.18 14.94 14.51 19.58 20.98 23.21 23.74 23.71 23.02 20.92 22.20 20.51 18.43 19.56 18.82 15.05 14.49 12.15 11.63 11.94 10.98 7.46 5.56 5.41 6.11 5.45
36.74 38.79 39.64 39.76 38.20 34.25 30.80 31.44 29.37 22.08 24.05 26.75 22.27 20.37 19.83 18.24 23.12 27.31 28.77 29.67 29.87 30.08 29.46 28.42 25.20 18.44 16.24 15.01 12.20 16.69 12.66 15.27 16.56 15.74 14.46 12.90 15.49 17.84 16.07 17.49 18.39 17.29 14.61 14.96 13.92 12.65 10.47 9.40 8.04 6.69 7.11 6.03 5.22 1.20
40.77 40.13 38.74 39.10 38.90 32.36 29.08 29.37 32.08 25.51 21.68 20.96 19.16 16.16 17.65 14.59 13.33 14.51 15.36 18.18 26.53 26.00 23.02 23.94 22.36 11.73 12.23 17.86 17.62 19.53 19.18 16.66 18.96 19.17 16.51 8.41 9.99 12.83 13.89 17.28 15.36 14.92 16.30 16.91 16.35 12.20 11.46 9.22 8.66 7.74 5.92 4.05 3.61 3.02
37.56 38.07 39.16 37.21 33.29 32.25 27.59 25.72 24.59 24.80 25.21 19.27 19.04 19.64 13.60 17.24 13.50 13.34 14.28 19.28 21.75 21.53 17.56 11.60 5.07 18.36 21.78 13.79 11.91 16.20 16.76 19.87 16.21 19.00 16.60 13.47 13.28 18.74 15.44 13.52 15.85 16.22 13.22 9.71 10.67 5.39 3.57 5.38 5.24 7.69 0.01 -0.53 -1.62 -1.70
34.66 36.31 32.97 35.51 30.18 29.24 26.69 25.67 23.73 23.26 21.36 24.00 23.36 20.38 19.44 15.19 12.22 18.65 20.23 14.51 10.89 12.37 9.14 8.30 7.96 15.55 12.13 11.04 11.42 15.52 19.67 22.20 21.89 20.88 20.10 19.77 16.67 16.89 15.54 12.39 13.96 6.51 5.06 3.41 7.23 3.78 3.78 6.35 5.88 2.75 0.36 -0.72 6.28 2.66
36.07 36.02 32.57 30.51 24.26 22.86 22.40 25.68 20.15 21.32 14.97 21.73 23.10 21.22 22.19 22.81 20.21 24.41 9.07 10.64 10.03 8.76 7.21 6.66 6.43 8.49 13.49 10.46 17.35 19.71 18.83 22.25 20.51 19.88 19.33 17.87 17.19 15.23 14.28 11.43 10.63 7.76 6.03 5.80 6.59 5.68 4.43 4.29 3.19 -0.17 -1.44 -1.09 -2.71 -0.35
35.49 28.73 24.92 23.35 21.92 18.82 19.08 15.22 23.57 22.57 18.31 20.15 19.90 9.80 14.22 11.18 17.15 10.27 8.31 6.20 6.66 11.18 10.47 14.98 17.01 16.23 16.65 18.84 16.48 17.01 18.10 20.10 19.18 18.58 18.53 19.23 16.08 8.29 9.46 8.70 7.62 6.89 10.62 13.28 8.30 5.96 3.85 0.48 -1.44 -0.75 -4.52 -4.88 -4.34 -0.53
24.78 21.25 18.70 16.87 17.30 15.23 11.51 20.64 14.45 15.28 6.90 8.69 12.09 9.26 12.74 14.52 5.90 5.81 9.07 6.55 16.41 8.87 9.80 10.83 13.23 14.80 12.46 11.04 13.44 14.84 16.59 19.11 16.89 14.27 12.86 13.84 12.77 14.11 11.61 9.87 8.98 8.34 8.47 3.53 1.28 -2.17 -1.62 -3.07 -5.43 -5.07 -2.89 -7.32 0.98 2.25
16.76 15.00 14.33 11.10 10.96 13.62 13.78 12.48 7.26 6.89 8.72 9.44 10.83 13.67 10.59 5.56 6.72 10.47 12.59 9.23 7.90 8.78 7.73 14.59 11.95 11.90 11.73 12.57 12.71 14.21 16.05 17.11 14.14 9.04 6.79 9.30 12.98 11.92 7.21 5.58 4.68 5.61 7.30 0.92 -1.81 -1.62 2.00 0.91 -2.71 -1.08 -4.16 -0.23 -1.99 -4.70
9.15 9.17 17.67 23.31 22.83 21.27 12.65 13.04 19.81 14.68 10.74 10.14 13.92 14.13 14.97 10.03 3.42 10.17 14.74 13.09 11.55 9.55 12.24 15.13 16.96 15.20 14.84 12.52 11.24 6.67 8.34 10.84 10.45 10.56 10.86 10.95 10.69 11.54 11.14 6.62 4.56 5.79 7.01 1.34 -2.72 -3.43 -2.35 -1.80 1.41 -1.98 -3.07 -1.47 -5.97 -6.52
11.44 12.86 11.59 11.48 13.99 18.93 12.63 11.88 13.16 14.17 14.92 17.97 18.18 13.52 10.42 7.79 9.26 14.13 11.11 10.22 12.82 14.49 15.11 15.15 15.91 17.03 15.72 13.05 9.86 9.20 9.92 10.79 10.61 11.20 11.41 9.67 7.03 3.24 0.73 -0.36 -0.18 7.26 -1.44 -3.62 -4.52 -7.60 -5.25 0.18 2.06 -0.72 -1.80 -1.80 -3.98 -9.78
10.32 14.46 15.78 8.47 9.71 9.18 8.46 12.51 12.55 11.93 14.37 16.72 13.94 11.56 6.87 10.18 10.57 9.90 12.70 12.68 10.21 14.80 12.83 11.95 11.16 10.99 8.10 5.58 2.40 3.00 8.95 10.43 4.72 -1.82 -6.52 -6.88 -6.70 -0.24 -6.15 -7.42 -5.97 -6.88 -8.51 -2.93 4.36 1.28 -1.98 -4.88 -4.34 -4.88 -6.70 -5.43 -5.07 -10.69
9.96 12.09 8.64 5.56 10.05 11.46 9.94 13.02 12.87 13.59 13.47 10.40 11.66 11.68 10.96 8.63 11.41 12.37 14.92 14.20 11.87 12.12 13.49 12.55 11.58 11.08 8.21 7.45 0.90 1.77 -0.59 -7.06 -3.71 1.30 -1.79 -5.11 -0.63 -4.04 -10.32 -8.51 -7.42 -9.60 -12.14 -9.42 -7.60 -4.35 3.26 2.86 4.03 -3.77 -7.97 -10.50 -12.68 -13.95
12.54 7.84 5.12 4.09 3.91 4.54 7.80 7.16 9.05 12.86 11.65 7.03 4.00 3.84 4.43 2.91 6.87 7.84 10.73 8.89 10.85 10.29 9.60 6.69 -0.35 1.75 5.72 3.80 2.66 0.17 -3.25 -6.70 -11.77 -8.69 -5.09 -1.59 -2.76 -9.60 -11.05 -11.23 -12.86 -14.49 -12.86 -10.32 -11.23 -11.77 -12.14 -14.13 -16.31 -15.76 -13.61 -15.04 -17.21 -18.12
13.30 7.96 6.63 2.75 2.72 7.48 4.67 0.63 -2.35 -2.35 -1.98 -1.63 -1.80 -4.52 -2.36 -2.39 -0.09 1.24 9.61 13.17 11.24 9.73 8.85 9.83 7.54 5.34 0.92 -2.03 -4.07 -7.61 -2.49 -0.28 -4.52 -2.09 -1.77 -3.43 -8.15 -13.41 -12.32 -11.96 -15.76 -12.50 -8.57 -11.41 -14.13 -14.67 -15.22 -15.76 -17.76 -18.48 -18.84 -19.03 -20.29 -21.02
10.40 9.49 8.58 6.98 3.99 4.05 5.02 7.05 4.71 0.55 -3.80 -2.89 -3.62 -1.73 -0.65 2.17 3.17 5.72 4.11 12.03 15.62 13.40 9.45 10.02 5.91 4.84 3.51 1.97 -1.00 -5.63 -5.09 -5.97 -7.97 0.74 -4.88 -5.43 -9.78 -11.05 -17.03 -17.94 -16.31 -10.33 -7.17 -12.50 -16.85 -16.67 -15.58 -15.58 -19.39 -20.29 -21.75 -22.11 -22.83 -23.56
MSLP
1002.24 1002.80 1003.35 1004.00 1004.78 1005.46 1006.10 1006.83 1007.53 1008.45 1009.25 1009.75 1010.23 1010.61 1010.71 1010.77 1010.89 1010.89 1012.48 1012.24 1012.28 1014.81 1016.09 1015.74 1015.80 1016.40 1017.13 1017.64 1018.75 1019.32 1019.85 1020.53 1021.42 1022.62 1023.30 1023.29 1022.91 1022.46 1022.43 1022.30 1022.74 1023.47 1023.65 1023.45 1023.04 1022.80 1022.12 1021.26 1020.35 1020.61 1021.29 1020.89 1020.80 1020.67
1002.98 1003.55 1004.17 1004.87 1005.54 1006.24 1006.84 1007.37 1008.15 1008.94 1009.68 1010.08 1010.50 1010.83 1010.90 1010.98 1010.87 1010.99 1012.72 1012.71 1012.67 1014.44 1016.53 1016.30 1016.09 1016.23 1016.33 1016.98 1018.04 1019.29 1020.00 1020.63 1021.47 1022.79 1023.84 1023.80 1023.45 1023.26 1023.18 1023.03 1022.79 1023.27 1022.89 1023.02 1022.93 1022.45 1021.91 1021.64 1021.67 1021.66 1021.45 1021.24 1020.90 1020.90
1003.67 1004.24 1004.81 1005.47 1006.11 1006.80 1007.45 1008.03 1008.73 1009.46 1010.19 1010.51 1010.65 1011.09 1011.09 1011.27 1011.23 1011.54 1012.99 1013.44 1013.70 1015.98 1016.91 1016.87 1016.89 1016.80 1016.67 1017.05 1017.36 1018.70 1019.97 1020.18 1020.99 1021.42 1022.95 1023.59 1023.62 1023.41 1023.34 1022.82 1022.51 1022.22 1022.19 1022.54 1022.54 1022.17 1021.83 1021.87 1021.75 1021.82 1021.65 1021.50 1021.26 1021.15
1004.12 1004.78 1005.44 1006.08 1006.70 1007.34 1008.02 1008.65 1009.22 1009.92 1010.52 1011.03 1011.20 1011.57 1011.64 1011.88 1011.94 1012.11 1013.30 1013.87 1014.31 1016.01 1017.55 1018.18 1017.27 1017.31 1017.26 1017.32 1017.64 1018.11 1019.06 1019.98 1020.75 1021.58 1022.64 1023.42 1023.53 1022.98 1022.75 1022.33 1022.28 1021.88 1021.85 1021.90 1021.90 1021.85 1021.73 1021.77 1021.73 1021.69 1021.61 1021.67 1021.66 1021.59
1004.40 1005.19 1005.94 1006.60 1007.24 1007.83 1008.58 1009.29 1009.73 1010.44 1010.89 1011.60 1011.75 1012.13 1012.25 1012.60 1012.79 1013.09 1013.63 1014.39 1014.53 1015.41 1017.50 1018.43 1018.04 1017.84 1017.71 1018.04 1018.36 1018.61 1019.38 1020.50 1021.57 1022.45 1023.21 1023.36 1022.78 1022.75 1022.40 1022.21 1021.77 1021.00 1020.92 1021.33 1021.47 1021.50 1021.75 1021.73 1021.68 1021.47 1021.75 1022.11 1022.28 1022.37
1004.71 1005.57 1006.36 1007.07 1007.75 1008.40 1009.21 1009.87 1010.31 1010.74 1011.45 1012.12 1012.52 1012.72 1012.75 1013.03 1013.33 1013.82 1014.82 1015.08 1015.00 1015.23 1017.27 1018.80 1018.93 1018.45 1018.58 1018.86 1019.02 1019.46 1020.00 1021.03 1021.74 1022.46 1022.78 1022.62 1022.03 1022.15 1022.31 1021.95 1020.52 1020.28 1020.39 1020.58 1021.00 1021.21 1021.53 1021.84 1022.09 1022.16 1022.44 1022.76 1022.91 1023.00
1005.12 1005.94 1006.76 1007.56 1008.40 1009.01 1009.76 1010.36 1010.74 1011.36 1012.03 1012.70 1013.02 1013.25 1013.33 1013.62 1013.94 1014.93 1015.72 1015.85 1015.36 1015.68 1017.38 1019.35 1019.44 1019.05 1018.83 1019.45 1019.94 1020.26 1020.59 1021.28 1021.78 1022.32 1022.56 1022.42 1021.98 1021.84 1021.96 1021.44 1020.25 1020.16 1020.39 1020.75 1021.01 1021.39 1022.08 1022.39 1022.87 1023.06 1023.26 1023.44 1023.56 1023.67
1005.53 1006.37 1007.24 1008.14 1008.86 1009.60 1010.16 1010.70 1011.26 1012.02 1012.61 1013.13 1013.54 1013.69 1014.01 1014.22 1014.79 1015.50 1015.95 1015.75 1015.77 1016.61 1017.70 1019.41 1020.20 1019.59 1019.23 1020.05 1020.73 1020.89 1021.32 1021.60 1021.88 1022.12 1022.31 1022.21 1021.91 1021.79 1021.44 1020.43 1020.34 1020.47 1020.83 1021.38 1021.73 1021.84 1022.45 1023.09 1023.49 1023.83 1024.04 1024.06 1024.08 1024.20
1006.00 1006.84 1007.77 1008.60 1009.36 1009.93 1010.55 1011.19 1011.93 1012.59 1013.18 1013.53 1014.02 1014.10 1014.32 1015.16 1016.03 1016.49 1016.29 1016.20 1016.37 1017.34 1018.62 1019.58 1019.97 1019.92 1019.60 1020.43 1020.86 1021.31 1021.48 1022.16 1022.21 1022.29 1022.12 1022.17 1021.71 1021.39 1020.34 1020.37 1020.59 1020.88 1021.19 1022.02 1022.54 1022.88 1023.28 1023.72 1024.19 1024.51 1024.70 1024.82 1024.98 1025.07
1006.40 1007.31 1008.17 1008.99 1009.72 1010.39 1010.95 1011.77 1012.45 1013.11 1013.59 1014.07 1014.55 1014.99 1016.55 1016.66 1016.36 1016.47 1016.67 1017.16 1017.57 1018.25 1018.86 1019.85 1019.93 1019.68 1019.85 1020.71 1021.25 1021.72 1021.81 1022.05 1022.10 1021.76 1021.65 1021.63 1021.11 1020.64 1020.48 1020.64 1021.19 1021.48 1021.88 1022.47 1023.07 1023.62 1024.02 1024.39 1024.72 1025.00 1025.36 1025.68 1025.83 1025.87
1006.83 1007.61 1008.45 1009.28 1010.03 1010.84 1011.55 1012.23 1012.92 1013.59 1014.21 1014.78 1015.65 1016.49 1016.94 1016.64 1016.97 1017.73 1018.58 1018.90 1019.32 1019.66 1019.67 1019.93 1019.86 1019.75 1019.84 1020.57 1021.33 1021.76 1021.96 1022.08 1021.97 1021.43 1021.54 1021.22 1020.58 1020.56 1021.00 1021.41 1021.98 1022.37 1022.85 1023.39 1023.78 1024.39 1024.83 1025.16 1025.48 1025.75 1026.00 1026.29 1026.52 1026.67
1007.30 1008.05 1008.79 1009.61 1010.35 1011.33 1012.06 1012.70 1013.33 1013.96 1014.45 1014.65 1015.18 1016.40 1017.10 1017.43 1018.32 1018.96 1019.63 1019.73 1019.46 1019.52 1019.81 1019.84 1019.99 1020.04 1020.17 1020.27 1021.03 1022.01 1022.06 1022.30 1021.58 1021.30 1021.27 1020.95 1020.34 1020.86 1021.64 1022.29 1022.99 1023.43 1023.83 1024.40 1024.78 1025.21 1025.60 1025.86 1026.13 1026.34 1026.66 1026.94 1027.19 1027.20
1007.79 1008.25 1009.01 1009.93 1010.91 1011.67 1012.42 1013.19 1013.56 1014.00 1014.50 1015.09 1015.71 1017.05 1017.80 1018.82 1019.23 1019.55 1019.67 1019.64 1019.36 1019.10 1019.54 1019.67 1020.40 1020.26 1020.54 1020.83 1021.76 1022.18 1022.31 1022.14 1021.45 1021.41 1021.07 1020.81 1020.92 1021.63 1022.34 1023.07 1023.82 1024.32 1024.71 1025.26 1025.76 1026.08 1026.28 1026.48 1026.70 1027.00 1027.27 1027.34 1027.52 1027.60
1008.25 1008.53 1009.44 1010.28 1011.18 1012.03 1012.87 1013.47 1014.00 1014.52 1014.87 1015.89 1017.12 1018.53 1018.78 1019.18 1019.17 1018.88 1018.60 1018.50 1018.37 1018.46 1018.95 1019.39 1020.31 1020.46 1021.17 1021.53 1022.36 1022.89 1022.62 1022.24 1022.06 1022.08 1021.48 1021.44 1021.56 1022.25 1023.00 1023.71 1024.33 1024.99 1025.52 1025.97 1026.34 1026.66 1026.98 1027.26 1027.48 1027.63 1027.83 1027.85 1027.99 1028.20
1009.06 1009.42 1010.19 1010.92 1011.64 1012.56 1013.38 1013.94 1014.52 1014.98 1015.80 1016.95 1017.57 1018.70 1019.02 1018.95 1018.87 1018.64 1018.49 1018.40 1018.43 1018.50 1018.87 1019.55 1020.46 1021.03 1022.00 1022.31 1022.59 1022.87 1022.91 1022.59 1022.38 1022.04 1022.01 1022.12 1022.40 1022.97 1023.62 1024.24 1024.84 1025.49 1026.21 1026.65 1026.98 1027.32 1027.64 1027.94 1028.13 1028.27 1028.22 1028.04 1028.17 1028.27
1010.03 1010.55 1010.78 1011.20 1012.21 1013.20 1014.05 1014.55 1015.30 1015.90 1016.72 1017.57 1018.27 1018.99 1019.13 1019.10 1019.16 1018.94 1018.76 1018.86 1018.94 1018.94 1019.00 1019.65 1021.07 1021.76 1022.45 1022.48 1022.93 1023.10 1023.23 1022.98 1022.34 1022.40 1022.47 1022.81 1023.29 1023.79 1024.30 1024.80 1025.33 1025.88 1026.44 1026.94 1027.42 1027.78 1028.11 1028.42 1028.58 1028.69 1028.46 1028.41 1028.54 1028.47
1010.53 1011.32 1011.43 1012.00 1013.05 1014.10 1014.80 1015.77 1016.46 1017.24 1017.99 1018.52 1019.08 1019.10 1019.27 1019.34 1019.53 1019.36 1019.23 1019.42 1019.18 1019.26 1019.74 1020.11 1021.12 1021.53 1022.21 1022.59 1022.92 1022.77 1022.90 1022.81 1022.64 1022.89 1023.23 1023.67 1024.02 1024.50 1024.97 1025.44 1025.89 1026.32 1026.81 1027.32 1027.79 1028.13 1028.51 1028.47 1028.55 1028.81 1029.21 1029.10 1028.90 1028.76
1011.61 1011.91 1012.12 1012.56 1013.62 1015.04 1016.17 1016.66 1017.41 1018.12 1018.81 1019.17 1019.70 1020.02 1020.03 1020.05 1020.00 1020.06 1019.83 1019.78 1019.62 1019.77 1019.96 1020.39 1020.71 1021.66 1022.46 1022.64 1022.95 1022.67 1023.08 1023.15 1023.25 1023.65 1024.18 1024.43 1024.88 1025.20 1025.54 1025.94 1026.31 1026.71 1027.18 1027.62 1027.98 1028.19 1028.41 1028.82 1029.13 1029.49 1029.48 1029.24 1029.19 1029.00
1011.86 1012.38 1013.04 1013.43 1014.19 1015.40 1016.71 1017.56 1017.77 1018.58 1019.30 1019.55 1020.16 1020.42 1020.69 1020.87 1020.89 1020.57 1020.51 1020.38 1020.34 1020.43 1020.67 1021.10 1021.77 1022.33 1022.55 1022.30 1022.51 1022.94 1023.06 1023.51 1023.96 1024.52 1025.08 1025.16 1025.41 1025.69 1026.09 1026.43 1026.73 1027.07 1027.43 1027.78 1028.16 1028.56 1028.92 1029.08 1029.37 1029.35 1029.48 1029.51 1029.82 1029.59
1012.35 1013.10 1013.77 1014.25 1014.81 1015.73 1016.83 1017.70 1017.76 1018.59 1019.60 1020.04 1020.57 1021.07 1021.46 1021.78 1021.74 1021.49 1021.43 1021.43 1021.35 1021.61 1022.05 1022.51 1022.59 1022.32 1022.38 1022.48 1022.72 1022.81 1022.95 1023.42 1023.95 1024.97 1025.71 1026.05 1026.09 1026.34 1026.71 1026.99 1027.27 1027.42 1027.72 1028.08 1028.51 1028.86 1029.21 1029.55 1029.55 1029.62 1029.72 1029.80 1030.03 1030.11
1013.52 1014.18 1014.71 1015.08 1015.61 1016.19 1016.84 1017.77 1018.37 1018.86 1019.54 1020.22 1020.78 1021.10 1021.85 1021.93 1022.24 1022.45 1022.49 1022.31 1022.60 1022.93 1023.14 1022.85 1022.97 1022.85 1022.91 1023.14 1023.15 1023.25 1023.36 1023.51 1024.00 1024.35 1025.08 1026.06 1026.45 1026.72 1027.19 1027.43 1027.58 1027.92 1028.39 1028.86 1029.32 1029.88 1030.06 1030.12 1029.87 1029.92 1029.96 1029.97 1030.00 1029.95
1014.16 1014.71 1015.12 1015.38 1015.99 1016.55 1017.14 1017.72 1018.24 1019.04 1019.77 1020.40 1020.90 1021.40 1022.26 1022.81 1022.80 1022.48 1022.57 1023.25 1023.30 1022.81 1023.11 1023.35 1023.41 1023.55 1023.79 1023.93 1023.81 1023.78 1023.78 1023.84 1024.13 1024.55 1024.97 1025.58 1026.53 1027.10 1027.65 1027.98 1028.21 1028.70 1029.11 1029.58 1029.88 1030.30 1030.22 1030.00 1030.08 1030.13 1030.11 1030.10 1029.53 1029.61
1014.62 1014.87 1015.31 1015.71 1016.50 1017.38 1018.20 1018.03 1018.76 1019.56 1020.46 1020.87 1021.26 1021.71 1022.06 1022.39 1022.47 1022.44 1023.10 1023.22 1023.12 1022.82 1022.90 1023.15 1023.29 1023.52 1023.88 1024.25 1024.16 1024.22 1024.23 1024.35 1024.78 1025.16 1025.61 1026.19 1026.79 1027.26 1027.76 1028.34 1028.59 1029.14 1029.53 1029.76 1029.73 1029.95 1030.14 1030.24 1030.31 1030.32 1030.27 1030.18 1029.99 1030.00
1014.60 1015.25 1016.04 1016.71 1017.39 1018.57 1018.80 1018.90 1019.09 1019.74 1020.69 1021.13 1021.62 1022.14 1022.34 1022.47 1022.78 1023.17 1023.58 1023.16 1022.85 1022.89 1023.22 1023.37 1023.57 1024.18 1024.49 1024.62 1024.83 1024.91 1025.00 1025.03 1025.43 1025.88 1026.23 1026.68 1027.46 1028.19 1028.44 1028.91 1029.16 1029.42 1029.56 1029.67 1029.84 1030.08 1030.23 1030.33 1030.47 1030.52 1030.54 1030.50 1030.43 1030.38
1014.91 1016.29 1016.63 1017.43 1017.91 1018.92 1019.52 1019.67 1020.06 1020.49 1021.09 1021.62 1022.03 1022.31 1022.48 1022.70 1023.28 1023.77 1023.51 1022.98 1023.04 1023.36 1023.74 1023.64 1023.81 1024.05 1024.58 1025.13 1025.38 1025.48 1025.46 1025.54 1025.99 1026.63 1027.14 1027.16 1027.95 1028.61 1029.23 1029.52 1029.71 1029.87 1029.77 1030.08 1030.34 1030.43 1030.40 1030.48 1030.54 1030.61 1030.75 1030.77 1030.70 1030.63
1015.83 1017.06 1017.45 1017.61 1018.33 1018.68 1019.49 1020.18 1020.31 1020.66 1021.25 1021.72 1021.96 1022.15 1022.41 1023.31 1023.65 1023.17 1022.45 1022.62 1023.33 1023.46 1023.72 1023.60 1023.87 1024.42 1024.90 1025.02 1025.61 1025.86 1026.12 1026.13 1026.51 1027.19 1027.82 1027.87 1027.96 1028.37 1029.14 1029.72 1030.05 1030.37 1030.07 1030.19 1030.66 1030.80 1030.65 1030.54 1030.60 1030.71 1030.88 1030.96 1030.89 1030.85
1017.52 1017.98 1017.90 1017.68 1017.85 1018.25 1019.36 1019.69 1019.83 1020.55 1021.04 1021.44 1021.66 1022.40 1022.89 1023.41 1023.04 1022.25 1022.30 1022.57 1022.83 1022.75 1022.77 1023.10 1023.42 1023.93 1024.61 1025.36 1025.80 1026.13 1026.41 1026.66 1027.06 1027.71 1028.18 1028.35 1028.49 1028.59 1029.14 1029.91 1030.08 1030.31 1030.21 1030.40 1030.49 1030.79 1030.82 1030.65 1030.64 1030.82 1031.03 1031.19 1031.26 1031.24
1017.71 1018.03 1018.42 1018.83 1018.90 1018.98 1019.92 1020.38 1020.52 1020.49 1020.60 1020.39 1021.18 1022.30 1022.71 1022.88 1022.54 1022.44 1022.61 1022.59 1022.55 1022.59 1022.96 1023.38 1023.59 1024.00 1024.78 1025.56 1026.04 1026.64 1027.31 1027.64 1028.05 1028.49 1028.88 1029.33 1029.63 1029.76 1029.97 1030.29 1030.42 1030.02 1030.54 1030.72 1030.88 1030.38 1030.23 1030.42 1030.72 1031.13 1031.41 1031.52 1031.63 1031.14
1018.43 1018.73 1018.92 1019.81 1019.88 1019.95 1020.00 1020.26 1020.37 1020.49 1020.64 1020.66 1021.35 1021.81 1022.19 1022.36 1022.57 1022.70 1022.79 1022.77 1022.90 1022.93 1023.53 1024.21 1024.95 1025.20 1025.90 1026.64 1027.06 1027.31 1027.49 1028.06 1028.76 1029.51 1029.89 1030.73 1030.91 1031.01 1030.84 1030.95 1031.13 1031.23 1031.09 1030.93 1030.04 1030.18 1029.73 1029.83 1030.16 1030.98 1031.38 1031.58 1031.67 1031.65
1018.93 1018.92 1019.89 1020.38 1020.93 1021.05 1020.88 1020.85 1021.04 1021.22 1021.34 1021.59 1021.88 1022.41 1022.69 1022.79 1022.73 1022.63 1022.79 1023.00 1023.22 1023.37 1023.62 1024.13 1024.85 1025.43 1026.38 1027.09 1028.20 1028.70 1028.80 1028.79 1029.00 1029.36 1029.94 1030.67 1030.76 1030.97 1031.17 1031.35 1031.54 1031.82 1031.57 1031.42 1030.87 1030.54 1030.19 1030.07 1030.35 1031.18 1032.21 1032.39 1032.74 1032.99
1019.19 1019.82 1020.68 1021.12 1021.46 1021.68 1021.67 1021.74 1021.77 1021.86 1022.14 1022.50 1022.98 1023.47 1023.72 1023.60 1023.10 1022.67 1022.69 1022.71 1022.99 1023.51 1024.06 1024.92 1025.57 1025.86 1026.53 1027.25 1027.76 1028.40 1029.19 1029.20 1029.12 1029.06 1029.20 1029.55 1030.22 1030.91 1031.36 1031.69 1031.65 1031.71 1031.74 1031.74 1031.54 1031.57 1031.74 1032.19 1032.86 1033.23 1033.54 1033.69 1033.90 1033.96
1019.67 1020.44 1021.06 1021.92 1022.16 1022.20 1022.29 1022.73 1022.91 1022.94 1023.32 1023.64 1023.85 1024.01 1024.41 1024.52 1024.06 1022.81 1021.66 1022.00 1022.68 1023.27 1023.67 1024.31 1025.14 1026.00 1026.55 1026.74 1027.27 1027.65 1027.94 1028.62 1029.26 1029.39 1029.52 1029.98 1030.71 1031.41 1031.43 1031.46 1031.65 1031.51 1031.88 1032.02 1032.14 1032.36 1032.71 1033.62 1033.93 1034.10 1034.31 1034.46 1034.58 1034.64
1020.12 1020.67 1021.25 1021.76 1022.24 1022.49 1022.63 1022.91 1023.26 1023.54 1023.71 1024.04 1023.99 1024.12 1024.02 1023.75 1022.98 1021.47 1021.07 1020.97 1021.34 1022.13 1023.21 1024.04 1024.76 1025.51 1026.31 1026.88 1027.38 1027.90 1028.40 1029.07 1029.65 1029.49 1030.00 1030.26 1030.71 1031.17 1031.71 1031.85 1031.84 1031.64 1032.11 1032.47 1032.80 1033.06 1033.53 1034.00 1034.60 1034.80 1034.95 1035.03 1035.10 1035.11
Wind_Speed
19 22 23 22 21 21 22 23 23 21 19 17 15 11 8 8 6 4 1 4 5 5 3 4 3 5 4 3 5 3 5 5 4 4 3 2 2 2 2 3 4 3 1 2 2 3 5 7 3 4 4 4 4 5
20 20 21 21 20 21 22 23 23 20 17 16 14 10 9 10 9 6 4 3 4 7 4 1 4 3 5 6 7 3 4 3 4 5 1 2 2 2 2 3 2 2 6 4 5 4 2 2 1 4 4 4 4 4
20 20 19 20 21 22 22 22 22 20 17 15 15 12 14 15 13 8 4 2 5 5 4 5 4 3 5 5 3 6 1 4 3 3 4 2 1 3 1 4 1 2 2 2 3 2 2 1 1 2 3 5 5 4
22 22 21 21 21 21 20 21 22 20 17 15 15 14 16 16 16 9 4 2 5 4 6 2 2 4 4 5 6 5 6 5 5 3 3 3 2 3 3 3 3 6 5 3 3 2 3 5 3 4 6 2 4 5
23 23 23 21 20 21 21 21 21 20 18 16 15 14 16 16 16 10 5 4 3 6 5 3 2 5 3 6 7 8 7 5 3 3 3 2 2 1 1 1 3 4 4 4 5 4 3 2 5 4 4 4 5 5
23 23 23 22 21 24 22 21 21 20 18 16 14 14 14 11 7 5 6 5 4 3 6 3 3 2 3 4 7 6 4 3 3 4 2 2 3 3 1 3 3 2 2 4 3 4 3 5 7 7 5 4 5 5
23 24 23 23 22 24 23 21 21 20 18 16 16 14 13 12 5 5 4 3 1 3 5 4 2 3 3 4 3 3 4 2 3 2 1 2 2 3 2 3 2 5 4 3 3 5 3 5 3 5 5 5 5 4
24 25 24 24 24 23 21 20 20 19 18 17 15 16 14 14 8 6 5 6 3 5 5 5 0 2 2 1 2 1 2 2 3 1 1 2 2 2 3 3 3 6 9 8 8 9 6 7 6 6 5 6 7 8
24 25 24 24 22 20 19 20 21 20 19 18 14 10 6 6 4 1 3 7 3 4 4 3 5 4 2 2 2 2 2 2 1 1 2 3 2 5 4 6 6 3 3 8 7 7 7 7 5 5 5 7 7 8
25 25 24 23 22 21 22 23 21 21 20 15 6 6 4 2 3 3 6 5 6 4 4 3 0 2 4 1 2 2 2 0 1 3 2 2 4 1 3 6 6 6 7 6 4 2 2 3 5 6 6 6 6 7
20 24 24 23 23 23 22 23 23 21 10 4 3 3 1 2 4 4 3 4 2 4 1 1 2 3 1 4 3 1 3 1 1 3 3 3 3 4 6 9 6 8 8 8 8 7 5 5 3 4 5 6 7 8
20 20 24 25 24 25 24 25 22 5 3 4 6 5 3 3 4 5 1 2 0 2 2 4 3 3 1 2 4 1 3 1 3 3 3 3 1 10 9 10 8 7 8 8 6 7 4 4 3 3 3 4 6 6
15 23 24 25 27 27 26 24 10 12 7 3 4 5 4 2 6 5 4 1 0 3 3 3 1 3 2 3 4 4 4 4 1 2 3 3 5 7 8 8 7 6 7 7 6 5 5 4 4 3 3 3 4 5
15 21 26 24 28 28 26 15 17 4 5 4 4 4 3 2 2 3 3 3 3 3 4 4 2 3 0 4 2 4 4 3 3 2 5 2 3 7 7 6 7 6 5 4 5 4 3 3 3 3 3 4 3 5
17 19 26 21 29 28 17 17 9 4 3 3 3 3 3 2 2 1 0 2 3 2 4 4 4 3 2 4 0 3 3 3 4 5 3 2 5 7 7 6 6 6 4 3 1 1 1 1 2 4 4 3 3 4
20 13 2 28 28 24 17 10 6 3 3 3 4 3 2 4 2 2 2 3 3 1 2 4 3 4 2 4 2 5 3 6 5 2 1 5 5 5 5 5 4 4 4 4 2 2 2 1 1 1 4 5 5 3
9 3 17 26 27 20 15 5 3 5 3 3 2 1 3 3 3 1 2 1 2 2 2 3 4 6 2 2 2 3 5 4 3 3 3 3 5 6 5 5 3 4 4 3 2 2 1 1 2 4 5 5 4 4
4 11 10 26 19 10 4 4 3 3 3 0 3 2 2 1 3 2 1 2 2 1 1 2 0 2 4 4 4 4 2 1 3 3 3 4 4 4 4 5 3 3 4 3 2 2 3 4 3 1 2 4 3 5
7 14 17 20 10 5 3 1 2 3 1 1 2 1 2 1 2 2 3 3 2 2 2 1 2 3 4 4 4 3 2 3 3 2 2 2 3 5 4 3 3 3 3 2 2 2 2 1 1 1 2 2 1 3
18 24 23 12 6 3 4 2 2 4 4 3 2 1 2 2 1 2 2 2 2 2 2 3 5 4 4 2 3 2 2 3 5 4 1 2 1 3 3 2 2 3 4 4 4 3 2 2 2 2 1 0 1 3
11 10 17 5 2 2 3 3 3 2 3 2 1 2 0 2 2 1 1 1 2 2 3 4 3 2 2 2 1 2 3 3 3 4 4 3 2 4 3 2 3 3 3 2 2 1 1 2 2 2 1 2 2 3
4 8 2 1 2 2 4 2 4 2 4 2 2 2 2 1 1 2 2 2 3 4 4 4 3 3 2 2 1 3 4 6 5 5 8 9 4 3 2 2 3 2 2 3 2 3 2 3 2 1 1 3 2 1
8 2 2 2 5 4 0 2 5 1 5 4 3 2 1 2 1 1 1 3 4 3 3 2 3 3 5 2 4 4 4 6 5 5 5 5 4 3 4 3 2 4 2 2 2 2 2 3 2 2 2 2 2 2
3 3 4 3 4 3 2 3 2 3 3 3 3 1 2 3 0 3 4 4 4 1 2 4 6 5 3 4 3 2 3 4 5 4 3 5 5 2 3 3 3 1 1 0 1 0 1 1 2 2 3 2 3 1
5 5 5 4 2 5 4 4 2 4 2 3 3 2 3 2 1 2 5 4 3 1 2 2 3 3 4 2 1 2 2 4 5 4 2 2 5 5 4 3 3 1 1 3 3 3 3 1 1 2 1 1 2 4
6 2 3 4 1 5 5 5 4 6 4 2 4 1 2 3 1 7 4 3 3 4 4 6 5 3 2 2 4 3 3 3 5 4 2 1 4 6 5 4 2 2 2 2 3 2 3 2 1 1 1 1 1 1
4 2 2 1 2 4 4 2 2 4 4 5 4 4 3 3 7 4 1 1 2 3 4 4 4 5 6 3 2 2 3 3 4 4 2 3 3 3 4 4 3 3 1 3 3 3 1 2 1 1 1 2 1 1
4 3 6 3 3 1 5 3 4 6 5 2 5 4 6 8 5 1 2 2 2 3 6 5 4 5 6 5 5 6 6 7 8 8 7 6 5 4 4 3 2 3 1 3 4 3 2 2 2 2 2 1 2 2
1 1 3 2 2 2 3 5 5 1 0 3 5 4 5 2 1 1 1 2 1 5 7 6 5 6 7 6 5 3 6 8 7 6 4 2 1 3 2 2 2 3 2 2 2 3 4 4 4 4 3 3 2 2
2 2 4 1 5 5 1 1 2 1 1 2 2 2 1 2 2 1 4 3 3 4 5 7 8 7 7 8 5 3 3 2 3 5 5 5 6 3 2 2 2 1 2 3 3 3 7 5 5 5 4 4 4 4
2 3 4 2 2 2 1 1 2 1 2 2 2 3 3 2 3 2 3 3 5 6 7 6 2 3 7 6 5 5 0 2 1 3 3 4 5 4 3 2 2 1 2 4 4 3 3 3 3 3 4 4 4 3
2 3 4 2 2 3 3 2 1 1 2 2 2 2 3 3 3 4 4 6 7 7 5 8 8 7 4 3 3 1 3 6 5 4 8 5 4 3 2 2 2 3 5 5 4 3 3 4 4 3 3 2 2 2
3 2 2 3 2 1 2 2 1 2 2 2 4 5 5 6 8 4 2 3 9 9 8 7 4 6 7 7 6 5 5 5 6 6 6 7 6 5 3 2 3 4 6 5 4 3 4 4 3 2 1 0 2 3
Wind_Direction
130 131 131 128 128 129 129 130 125 126 132 133 132 121 100 110 128 99 121 343 111 92 20 43 89 113 72 96 132 210 54 353 42 66 119 195 143 258 47 203 185 184 251 280 26 37 313 351 353 51 311 302 334 333
141 136 133 134 133 136 135 127 124 123 124 122 115 103 93 95 83 82 67 349 33 82 145 1 75 67 128 160 127 35 154 149 175 91 28 93 71 27 135 260 6 354 177 203 175 235 262 35 35 320 315 310 307 316
145 143 134 131 133 130 130 127 125 123 123 116 107 87 81 80 77 91 107 356 61 80 32 48 57 26 64 77 138 116 301 161 117 153 154 146 131 130 192 249 229 270 179 223 30 222 184 236 211 315 294 304 338 27
151 145 140 137 135 132 132 130 126 124 119 111 107 93 83 77 73 80 82 337 76 106 103 328 349 57 112 77 69 95 122 62 93 70 90 120 148 170 232 233 174 206 167 193 267 148 219 198 206 245 280 11 23 22
148 145 142 139 135 134 134 133 128 126 119 114 107 100 91 92 86 80 77 38 80 117 139 148 342 3 108 104 93 83 87 85 75 59 74 218 220 128 251 335 261 192 189 151 228 171 180 261 299 319 80 56 38 33
143 143 142 139 137 135 132 130 130 123 120 116 111 104 94 81 59 54 47 352 359 80 95 100 293 51 83 101 110 99 95 91 94 131 201 251 253 120 120 249 254 172 129 145 181 173 188 95 61 48 71 62 41 44
142 142 142 140 142 138 133 129 122 122 121 116 108 98 86 74 65 74 148 204 357 67 84 77 45 348 114 99 33 65 45 96 118 137 170 201 285 128 154 236 240 187 133 89 34 130 78 34 88 53 55 45 40 33
144 142 142 142 142 138 136 129 126 123 121 117 109 98 87 95 92 42 351 29 49 85 70 103 121 62 122 90 81 21 87 32 11 163 31 194 335 104 252 231 115 99 99 69 60 60 85 97 79 59 41 15 17 9
147 145 146 147 146 140 140 133 132 128 127 120 113 89 56 38 48 139 86 52 41 101 108 90 131 184 73 83 88 32 72 55 347 123 252 105 236 226 240 165 140 131 135 130 96 85 80 77 75 53 33 20 8 356
152 150 149 148 143 134 131 133 134 132 132 114 50 52 31 319 164 21 15 26 18 350 41 89 149 119 107 123 127 93 60 151 248 239 112 166 251 145 61 99 105 99 109 134 143 141 78 61 33 29 27 10 1 350
145 151 148 150 146 134 137 137 136 131 101 51 72 73 271 169 53 39 48 66 320 29 40 124 146 119 345 120 162 181 175 155 214 254 161 232 247 167 130 105 93 86 89 77 91 95 77 69 35 15 15 16 4 351
147 158 154 145 140 145 146 141 135 105 155 168 113 104 81 51 41 77 357 353 49 141 164 128 183 169 261 103 102 272 150 125 248 170 227 253 8 121 118 115 109 109 105 97 92 96 81 70 38 27 22 0 357 341
148 162 151 146 145 150 143 141 129 114 117 54 61 67 73 358 58 117 160 268 197 176 179 143 95 152 19 56 70 80 79 225 59 239 240 234 142 133 126 121 110 103 106 110 105 99 77 61 40 23 347 325 330 336
131 153 148 148 150 144 144 130 121 96 73 77 98 86 129 175 232 192 171 163 230 117 134 119 80 115 82 58 140 90 246 59 339 292 239 258 136 133 129 130 128 130 120 114 118 111 89 60 0 331 307 288 308 331
131 135 152 161 145 145 122 122 80 58 82 85 83 123 176 204 128 114 198 55 19 118 114 82 52 80 8 79 33 89 22 234 228 239 253 215 130 132 134 136 131 132 140 149 142 125 222 17 354 328 324 312 351 312
119 98 69 143 142 143 104 71 35 49 45 63 54 93 352 78 92 25 60 82 14 88 58 58 104 59 284 151 105 202 180 229 248 240 146 122 113 112 119 124 126 139 152 161 157 210 229 233 275 281 335 18 344 349
81 65 165 153 142 117 77 73 24 48 91 50 75 20 140 95 107 119 86 38 302 71 125 116 101 198 116 111 220 191 211 215 189 140 114 112 142 142 131 127 138 148 146 137 171 214 195 184 104 41 18 319 338 342
64 132 136 146 119 80 37 29 83 77 67 39 100 259 53 39 96 55 77 22 42 77 91 112 65 159 176 183 237 234 178 86 59 92 98 107 106 122 138 144 151 153 148 138 95 78 85 84 70 298 302 309 330 2
129 137 135 123 108 100 104 78 94 102 62 53 103 59 71 103 3 84 110 102 62 45 100 133 194 210 225 210 183 207 176 163 156 157 117 87 123 122 121 104 131 111 124 122 114 112 120 145 206 263 292 353 0 312
123 129 137 134 60 89 100 86 69 102 162 203 82 47 101 152 199 45 14 10 104 119 129 199 216 220 178 219 185 188 151 143 122 123 92 334 14 107 100 114 122 107 93 89 88 76 55 10 345 339 311 356 28 305
98 146 134 122 76 71 98 140 73 127 128 117 184 95 256 19 42 71 268 271 89 205 243 208 201 178 73 63 136 128 91 113 153 147 164 159 226 119 96 71 100 88 102 97 121 334 39 227 258 308 295 281 254 249
90 101 106 175 98 85 76 15 122 137 78 134 111 83 113 358 274 226 153 66 224 233 187 163 188 147 113 104 72 66 118 96 89 96 93 113 117 110 112 143 109 102 120 176 169 194 245 261 277 293 342 299 279 12
132 144 93 70 85 66 241 54 79 40 97 155 132 124 189 223 202 56 281 224 248 228 180 152 157 120 118 124 96 78 77 104 97 97 99 100 104 102 102 80 86 124 125 283 205 188 234 293 325 323 332 11 36 16
168 85 115 114 92 129 31 34 75 92 91 141 150 276 246 219 150 57 251 252 251 207 75 124 126 108 71 84 77 94 92 102 99 82 98 128 119 45 90 101 82 77 101 137 116 177 274 309 2 28 22 41 6 323
80 352 84 59 52 99 93 115 56 69 134 186 113 278 247 84 96 247 236 264 171 169 141 113 95 113 126 106 85 90 56 121 123 116 19 91 115 116 89 66 62 36 14 64 17 11 306 8 50 31 32 52 13 335
78 304 104 171 242 123 160 125 166 178 138 142 213 200 74 96 154 240 235 195 199 175 175 164 148 123 82 132 143 137 145 118 105 90 310 72 157 155 155 144 124 315 8 127 131 46 356 0 111 19 2 290 338 33
117 233 267 291 137 102 53 37 105 123 155 164 179 158 152 219 244 249 243 197 174 209 166 157 150 139 151 139 95 71 89 75 107 127 113 62 52 73 129 147 164 228 313 123 117 136 129 355 102 107 102 351 316 244
163 140 141 240 67 41 133 136 163 184 182 168 116 170 197 200 236 205 215 270 134 108 90 70 64 113 126 125 122 116 94 102 94 94 83 55 42 40 61 72 66 78 85 165 147 138 135 119 89 111 145 135 295 340
113 259 109 88 76 63 183 168 200 169 203 166 157 203 228 224 217 237 196 146 127 115 109 108 84 93 81 68 49 60 129 141 125 118 115 166 341 303 356 43 51 27 18 55 48 160 193 168 163 133 128 123 114 63
279 66 83 84 156 209 228 141 144 153 55 113 104 80 30 316 262 220 144 136 136 149 145 142 143 142 143 135 128 77 31 47 145 142 157 188 207 190 158 122 77 7 28 79 63 13 29 51 47 33 43 33 24 28
113 77 69 60 193 268 282 343 11 80 64 76 13 127 207 253 307 252 174 156 129 127 127 137 98 136 140 146 147 130 172 292 229 203 156 116 119 132 154 177 188 153 107 103 92 83 78 52 66 75 62 50 22 41
97 129 131 138 267 299 33 75 135 106 335 75 273 59 7 43 259 258 203 152 154 164 168 160 161 186 192 122 112 119 153 134 154 145 128 122 122 141 138 124 116 105 96 88 84 89 86 108 92 89 103 80 11 354
82 86 97 104 83 328 280 124 188 287 347 240 248 194 198 182 230 244 312 203 173 165 165 165 145 133 150 148 145 131 106 114 127 118 111 114 124 127 112 86 95 101 104 99 91 96 100 107 92 91 103 336 308 313